Regional Weather Roundup
Issued by NWS

Home | Current Version | Previous Version | Text Only | Print | Product List | Glossary On
Versions: 1 2 3 4 5 6 7 8 9 10 11 12 13 14 15 16 17 18 19 20 21 22 23 24 25 26 27 28 29 30 31 32 33 34 35 36 37 38 39 40 41 42 43 44 45 46 47 48 49 50
000
ASUS44 KLIX 281710
RWRLA
LOUISIANA WEATHER ROUNDUP
NATIONAL WEATHER SERVICE NEW ORLEANS LA
1100 AM CST WED JAN 28 2015

NOTE: "FAIR" INDICATES FEW OR NO CLOUDS BELOW 12,000 FEET WITH NO
      SIGNIFICANT WEATHER AND/OR OBSTRUCTIONS TO VISIBILITY.
      SKY/WX - SKY CONDITION AND SIGNIFICANT WEATHER.
      TMP - AIR TEMPERATURE.    DP   - DEWPOINT TEMPERATURE.
      RH  - RELATIVE HUMIDITY.  PRES - PRESSURE.
      HX  - HEAT INDEX.         WCI  - WIND CHILL INDEX.

*  THESE STATIONS ARE NOT NWS OR FAA STATIONS AND ARE NOT UNDER
   NWS QUALITY CONTROL.

LAZ040-048-061>063-065-066-069-281800-
SOUTHEAST LOUISIANA

CITY           SKY/WX    TMP DP  RH WIND       PRES   REMARKS
N.O. AUDUBON   NOT AVBL
N.O. INTL ARPT SUNNY     60  39  45 E9        30.29F
N.O. LAKEFRONT SUNNY     59  39  47 E16       30.29F
N.O. DOWNTOWN* NOT AVBL
SLIDELL        SUNNY     60  36  40 E7        30.29F
BATON ROUGE    SUNNY     62  37  39 SE6       30.29R
BOOTHVILLE     SUNNY     59  46  62 NE9       30.30F
BELLE CHASSE   SUNNY     61  39  44 E13       30.27F
BOGALUSA*        N/A     59  35  39 CALM      30.31F
GALLIANO*      SUNNY     63  45  52 MISG      30.28F
NEW ROADS*     FAIR      60  38  43 E6        30.30R
GONZALES*      FAIR      62  39  43 NE7       30.29R
HAMMOND*       SUNNY     61  34  36 CALM      30.31F
HOUMA*         SUNNY     63  45  51 E13       30.28S
PORT FOURCHON* SUNNY     63  50  63 E13G18    30.30S

$$

LAZ041-044-053-054-281800-
SOUTHWEST LOUISIANA

CITY           SKY/WX    TMP DP  RH WIND       PRES   REMARKS
LAKE CHARLES   SUNNY     65  43  44 SE10      30.27R
LAFAYETTE      SUNNY     64  41  42 VRB5      30.28R
PATTERSON      SUNNY     63  39  42 E10       30.29S
SALT POINT       N/A     64  42  44 SE9       30.27R
NEW IBERIA     SUNNY     65  42  43 E9        30.29R
CHENAULT AIRPK SUNNY     61  45  55 SE12G17   30.27R

$$

LAZ027-028-281800-
CENTRAL LOUISIANA

CITY           SKY/WX    TMP DP  RH WIND       PRES   REMARKS
FORT POLK      SUNNY     64  39  40 SE10      30.25F
ALEXANDRIA INT SUNNY     60  41  49 SE12      30.26S
ALEXANDRIA     SUNNY     63  40  42 S6        30.28R

$$

LAZ001-002-281800-
NORTHWEST LOUISIANA

CITY           SKY/WX    TMP DP  RH WIND       PRES   REMARKS
SHREVEPORT     SUNNY     67  44  43 S14       30.21F
BARKSDALE AFB  SUNNY     63  45  51 S12       30.22F
DTN SHREVEPORT SUNNY     64  44  48 S9        30.22F

$$

LAZ014-016-281800-
NORTHEAST LOUISIANA

CITY           SKY/WX    TMP DP  RH WIND       PRES   REMARKS
MONROE         SUNNY     59  40  49 S7        30.28S
TALLULAH       SUNNY     57  37  47 E8        30.29R

$$



USA.gov is the U.S. government's official web portal to all federal, state and local government web resources and services.